Regional Weather Roundup
Issued by NWS Goodland, KS

Home | Current Version | Previous Version | Graphics & Text | Print | Product List | Glossary On
Versions: 1 2 3 4 5 6 7 8 9 10 11 12 13 14 15 16 17 18 19 20 21 22 23 24 25 26 27 28 29 30 31 32 33 34 35 36 37 38 39 40 41 42 43 44 45 46 47 48 49 50
000
ASUS43 KGLD 011559
RWRGLD

GOODLAND FORECAST AREA HOURLY WEATHER ROUNDUP
NATIONAL WEATHER SERVICE GOODLAND KS
900 AM MST SUN FEB 01 2015

...OFFICIAL OBSERVATIONS...

CITY           SKY/WX    TMP DP  RH WIND       PRES   REMARKS
GOODLAND KS    MOSUNNY   18  13  80 N25       30.18R WCI   0
HILL CITY KS   CLOUDY    15   8  73 NW28G36   30.18R WCI  -5
IMPERIAL NEB   PTSUNNY   13   4  67 N32G41    30.23R BLWGSNOWWCI  -9
MCCOOK NEB     SUNNY     13   4  67 NW25G41   30.21R HAZE    WCI  -7
AKRON CO       CLOUDY    19  14  81 N24G31    30.16R WCI   2
BURLINGTON CO  SUNNY     21  15  78 N26G35    30.14R WCI   4
LIMON CO       LGT SNOW  19  14  81 N13       30.13R WCI   6
$$

...UNOFFICIAL OBSERVATIONS...

CITY           SKY/WX    TMP DP  RH WIND       PRES   REMARKS
COLBY KS       MOSUNNY   16  12  86 NW21G36   30.18R WCI  -2
GOVE KS          N/A     17  32 100 MISG        N/A
NORTON KS      FLURRIES  12   5  73 NW30G36   30.17R WCI  -9
SHARON SPRINGS   N/A     22  18  83 N20G31      N/A  WCI   7
KIT CARSON CO    N/A     24  18  78 MISG        N/A
YUMA CO          N/A     16  11  79 N15         N/A  WCI   1
$$


USA.gov is the U.S. government's official web portal to all federal, state and local government web resources and services.